Location: Newark
(51.0500°N, 12.4500°E)
Time: 15:31:18
(UTC+00:00)

Tiros 1 - Pass Details

Date: 22 February 2020
Orbit: 630 x 664 km, 48.4° (Epoch: 31 March)

Event Time Altitude Azimuth Distance (km) Brightness Sun altitude
Rises 02:40:49 0° 242° (WSW) 2,922 - -33.0°
Reaches altitude 10° 02:43:12 10° 237° (WSW) 2,011 - -32.6°
Maximum altitude 02:47:39 48° 163° (SSE) 821 - -32.0°
Exits shadow 02:49:54 26° 102° (ESE) 1,241 9.0 -31.7°
Drops below altitude 10° 02:52:06 10° 89° (E) 2,009 10.4 -31.4°
Sets 02:54:28 0° 84° (E) 2,918 11.5 -31.0°
